DMSP 5D-2 F13 DEB, 40462

Orbit data source: Space-Track

DMSP 5D-2 F13 DEB, 40462 is space debris in SSO originally from a launch on Fri, 24 Mar 1995 UTC launched from the Air Force Western Test Range (AFWTR). Debris objects in space refer to the collection of defunct objects orbiting the Earth. Examples of debris include non-operational satellites, rocket bodies, and fragments generated from explosions, collisions, or faulty payload assembly.

Loading next visibility...
Identifier
40462, 1995-015BE
Orbit
SSO
Country
Flag of USUS
Related business
Manufacturer
Unknown
Mission
Spacecraft
Bus & Motor
Unknown
Mass
Unknown
Launch date (UTC)
1995-03-24 (31 years ago)
Launch vehicle
Unknown
Launch site
Air Force Western Test Range (AFWTR)
Object type
Payload
Rocket body
Debris
Shape & HBR
Unknown shape, 0.1 m
Radar Cross Section
Small (<0.1 m²)

Expand to show TLE details & history
Last TLE update: 4 days ago

TLE from 4 days ago
0 DMSP 5D-2 F13 DEB
1 40462U 95015BE  25346.36745787  .00019103  00000-0  56482-2 0  9994
2 40462  98.9520  18.1399 0036031 202.6157 157.3445 14.43094474554810
Epoch: 2025-12-12T08:49Z
TLE epoch observation values (Epoch: 2025-12-12T08:49:08.359Z)
Latitude
-0.00008°
Longitude
164.54499°
Altitude
774.945 km
Speed
7.454 km/s
True Right ascension
01h 12m 33s
True Declination
0° 00' 00"
Sunlit
Object was in daylight at epoch
Visualization orbit readout
Latitude
Unknown
Longitude
Unknown
Altitude
Unknown
Speed
Unknown
Apparent Right ascension
Unknown
Apparent Declination
Unknown
Sunlit
N/A
Visualization observer readout
Local Sidereal Time
09:38:30
Azimuth
Unknown
Elevation
Unknown
Doppler factor
Unknown
Orbital elements
Apogee altitude
771.099 km
Perigee altitude
719.765 km
Semi-major axis
7,123.569 km
Eccentricity
0.0036
Inclination
98.952°
RAAN
18.1399°
Arg. of periapsis
202.6157°
True anomaly
157.50288°
Mean anomaly
157.3445°
Eccentric anomaly
157.42376°
Mean motion
3.60991 °/min
Orbital period
99.73 mins
BSTAR
0.0056482
Loading maneuver chart data...
Computing Atmospheric mass density...

Documentation

Showing up to 5 results
|